Location: Carrigahorig
(53.0625°N, 8.1439°W)
Time: 00:31:08
(UTC+00:00)

Aureole 1 Rocket - Pass Details

Date: 15 May 2026
Orbit: 372 x 1149 km, 73.9° (Epoch: 9 June)

Event Time Altitude Azimuth Distance (km) Brightness Sun altitude
Rises 22:13:15 0° 334° (NNW) 3,223 8.8 -12.2°
Reaches altitude 10° 22:15:27 10° 338° (NNW) 2,405 7.5 -12.3°
Maximum altitude 22:21:02 65° 60° (ENE) 1,031 4.1 -12.8°
Enters shadow 22:26:16 17° 139° (SE) 2,351 5.4 -13.2°
